This demonstration page uses our WeatherBlox Daily Observations layout. Learn more.

Hourly Observations for November 6, 2016

Temp ( °F °C ) Dew Point ( °F °C ) Humidity (%) Winds ( mph kmh ) Pressure ( in mb ) Visibility ( mi km ) Precip ( " mm )
12:15 am 00:15 Clear 50 10 39 4 67 67 Calm 30.3 1026 10 16.09344 0 0
12:35 am 00:35 Clear 48 9 41 5 76 76 Calm 30.3 1026 10 16.09344 0 0
12:55 am 00:55 Clear 50 10 41 5 71 71 WNW 6 9 30.3 1026 10 16.09344 0 0
1:15 am 01:15 Clear 52 11 41 5 67 67 NW 7 11 30.3 1026 10 16.09344 0 0
1:35 am 01:35 Clear 54 12 41 5 63 63 NW 7 11 30.3 1026 10 16.09344 0 0
1:55 am 01:55 Clear 54 12 41 5 63 63 WNW 7 11 30.3 1026 10 16.09344 0 0
1:15 am 01:15 Clear 54 12 41 5 63 63 WNW 12 19 30.3 1026 10 16.09344 0 0
1:35 am 01:35 Clear 54 12 41 5 63 63 WNW 10 17 30.3 1026 10 16.09344 0 0
1:55 am 01:55 Clear 54 12 41 5 63 63 WNW 10 17 30.3 1026 10 16.09344 0 0
2:15 am 02:15 Clear 54 12 41 5 63 63 WNW 12 19 30.3 1026 10 16.09344 0 0
2:35 am 02:35 Clear 54 12 41 5 63 63 WNW 12 19 30.3 1026 10 16.09344 0 0
2:55 am 02:55 Clear 54 12 41 5 63 63 W 12 19 30.3 1026 10 16.09344 0 0
3:15 am 03:15 Clear 52 11 41 5 67 67 W 10 17 30.3 1026 10 16.09344 0 0
3:55 am 03:55 Clear 54 12 41 5 63 63 W 7 11 30.3 1026 10 16.09344 0 0
4:15 am 04:15 Clear 54 12 41 5 63 63 W 7 11 30.3 1026 10 16.09344 0 0
4:35 am 04:35 Clear 54 12 41 5 63 63 WNW 9 15 30.24 1024 10 16.09344 0 0
4:55 am 04:55 Clear 54 12 41 5 63 63 WNW 6 9 30.3 1026 10 16.09344 0 0
5:15 am 05:15 Clear 55 13 41 5 59 59 NW 3 6 30.27 1025 10 16.09344 0 0
5:35 am 05:35 Clear 54 12 41 5 63 63 Calm 30.3 1026 10 16.09344 0 0
5:55 am 05:55 Clear 54 12 41 5 63 63 Calm 30.3 1026 10 16.09344 0 0
6:15 am 06:15 Clear 54 12 41 5 63 63 Calm 30.33 1027 10 16.09344 0 0
6:35 am 06:35 Clear 54 12 41 5 63 63 Calm 30.33 1027 10 16.09344 0 0
6:55 am 06:55 Sunny 50 10 41 5 71 71 N 3 6 30.33 1027 10 16.09344 0 0
7:15 am 07:15 Sunny 52 11 43 6 72 72 WNW 7 11 30.33 1027 10 16.09344 0 0
7:35 am 07:35 Sunny 54 12 43 6 67 67 NW 3 6 30.36 1028 10 16.09344 0 0
7:55 am 07:55 Sunny 54 12 43 6 67 67 NW 5 7 30.36 1028 10 16.09344 0 0
8:15 am 08:15 Sunny 55 13 45 7 67 67 WNW 6 9 30.33 1027 10 16.09344 0 0
8:35 am 08:35 Sunny 59 15 45 7 59 59 N 3 6 30.33 1027 10 16.09344 0 0
8:55 am 08:55 Sunny 59 15 45 7 59 59 NNW 7 11 30.33 1027 10 16.09344 0 0
9:15 am 09:15 Sunny 61 16 45 7 55 55 NNW 12 19 30.33 1027 10 16.09344 0 0
9:35 am 09:35 Sunny 61 16 45 7 55 55 NNW 13 20 30.33 1027 10 16.09344 0 0
9:55 am 09:55 Sunny 63 17 43 6 49 49 N 13 20 30.33 1027 10 16.09344 0 0
10:15 am 10:15 Sunny 63 17 41 5 45 45 NNW 15 24 30.33 1027 10 16.09344 0 0
10:35 am 10:35 Sunny 63 17 39 4 42 42 NNW 14 22 30.33 1027 10 16.09344 0 0
10:55 am 10:55 Sunny 64 18 37 3 37 37 NNW 14 22 30.33 1027 10 16.09344 0 0
11:15 am 11:15 Sunny 64 18 37 3 37 37 N 12 19 30.33 1027 10 16.09344 0 0
11:35 am 11:35 Sunny 66 19 36 2 32 32 NNW 14 22 30.33 1027 10 16.09344 0 0
11:55 am 11:55 Sunny 64 18 37 3 37 37 NNW 16 26 30.33 1027 10 16.09344 0 0
12:15 pm 12:15 Sunny 64 18 37 3 37 37 NNW 15 24 30.33 1027 10 16.09344 0 0
12:35 pm 12:35 Sunny 66 19 39 4 37 37 NNW 10 17 30.33 1027 10 16.09344 0 0
12:55 pm 12:55 Sunny 66 19 37 3 35 35 NNW 10 17 30.3 1026 10 16.09344 0 0
1:15 pm 13:15 Sunny 68 20 36 2 30 30 NNW 22 35 30.3 1026 10 16.09344 0 0
1:35 pm 13:35 Sunny 68 20 34 1 28 28 NNW 16 26 30.3 1026 10 16.09344 0 0
1:55 pm 13:55 Sunny 68 20 34 1 28 28 NNW 17 28 30.3 1026 10 16.09344 0 0
2:15 pm 14:15 Sunny 68 20 34 1 28 28 NNW 14 22 30.3 1026 10 16.09344 0 0
2:35 pm 14:35 Sunny 68 20 34 1 28 28 N 14 22 30.3 1026 10 16.09344 0 0
2:55 pm 14:55 Sunny 68 20 34 1 28 28 N 14 22 30.3 1026 10 16.09344 0 0
3:15 pm 15:15 Sunny 68 20 34 1 28 28 N 13 20 30.3 1026 10 16.09344 0 0
3:35 pm 15:35 Sunny 66 19 34 1 30 30 NNW 14 22 30.3 1026 10 16.09344 0 0
3:55 pm 15:55 Sunny 68 20 34 1 28 28 N 12 19 30.3 1026 10 16.09344 0 0
4:15 pm 16:15 Sunny 66 19 34 1 30 30 N 9 15 30.3 1026 10 16.09344 0 0
4:35 pm 16:35 Sunny 64 18 34 1 32 32 N 9 15 30.3 1026 10 16.09344 0 0
4:55 pm 16:55 Sunny 64 18 34 1 32 32 N 5 7 30.3 1026 10 16.09344 0 0
5:15 pm 17:15 Clear 63 17 34 1 34 34 N 5 7 30.33 1027 10 16.09344 0 0
5:35 pm 17:35 Clear 61 16 34 1 36 36 NNW 3 6 30.33 1027 10 16.09344 0 0
5:55 pm 17:55 Clear 59 15 34 1 39 39 N 3 6 30.33 1027 10 16.09344 0 0
6:15 pm 18:15 Clear 57 14 34 1 41 41 Calm 30.33 1027 10 16.09344 0 0
6:35 pm 18:35 Clear 55 13 34 1 44 44 NW 3 6 30.33 1027 10 16.09344 0 0
6:55 pm 18:55 Clear 52 11 37 3 58 58 NW 3 6 30.36 1028 10 16.09344 0 0
7:15 pm 19:15 Clear 55 13 36 2 47 47 N 5 7 30.33 1027 10 16.09344 0 0
7:35 pm 19:35 Clear 54 12 34 1 47 47 N 6 9 30.36 1028 10 16.09344 0 0
7:55 pm 19:55 Clear 52 11 36 2 54 54 NNW 6 9 30.36 1028 10 16.09344 0 0
8:15 pm 20:15 Clear 55 13 34 1 44 44 N 5 7 30.36 1028 10 16.09344 0 0
8:35 pm 20:35 Clear 52 11 34 1 50 50 Calm 30.39 1029 10 16.09344 0 0
8:55 pm 20:55 Clear 52 11 36 2 54 54 N 6 9 30.39 1029 10 16.09344 0 0
9:15 pm 21:15 Clear 54 12 34 1 47 47 N 7 11 30.39 1029 10 16.09344 0 0
9:35 pm 21:35 Clear 50 10 36 2 58 58 N 3 6 30.39 1029 10 16.09344 0 0
9:55 pm 21:55 Clear 50 10 34 1 54 54 Calm 30.42 1030 10 16.09344 0 0
10:15 pm 22:15 Clear 46 8 36 2 66 66 N 6 9 30.42 1030 10 16.09344 0 0
10:35 pm 22:35 Clear 48 9 36 2 62 62 N 5 7 30.42 1030 10 16.09344 0 0
10:55 pm 22:55 Clear 50 10 34 1 54 54 N 5 7 30.42 1030 10 16.09344 0 0
11:15 pm 23:15 Clear 52 11 34 1 50 50 Calm 30.42 1030 10 16.09344 0 0
11:35 pm 23:35 Clear 45 7 36 2 71 71 NNE 5 7 30.45 1031 10 16.09344 0 0
11:55 pm 23:55 Clear 45 7 36 2 71 71 Calm 30.45 1031 10 16.09344 0 0

Powered by AerisWeather